Simultaneous Nadir Overpasses (SNOs) Predictions

Prediction of SNOs between GOES-16 and TERRA Satellite Orbit:

Table of predicted SNOs for the next 14.0 days since TLE Epoch: 7/15/2023
Index Date Time (GOES-16) GOES-16 Lat,Lon TERRA Lat,Lon Distance(km) Time Diff (sec)
1 07/16/2023 02:51:50 -0.02, -75.20 0.73, -71.64 404.85 80
2 07/16/2023 15:12:00 0.02, -75.21 0.32, -76.54 151.70 80
3 07/18/2023 14:52:56 0.01, -75.21 -0.55, -72.58 298.63 80
4 07/19/2023 03:15:55 -0.01, -75.20 -0.47, -77.52 262.89 80
5 07/21/2023 02:56:50 0.01, -75.21 0.37, -73.56 188.65 80
6 07/21/2023 15:19:40 -0.01, -75.22 0.68, -78.45 367.42 80
7 07/23/2023 15:00:35 -0.02, -75.24 -0.18, -74.49 85.29 80
8 07/24/2023 03:23:33 0.02, -75.24 -0.88, -79.42 475.55 80
9 07/26/2023 03:07:07 0.01, -75.26 -0.05, -75.45 22.11 80
10 07/28/2023 02:48:01 -0.00, -75.29 0.79, -71.48 432.25 80
11 07/28/2023 15:10:51 0.01, -75.30 0.21, -76.39 123.56 80
